Flag for Germany Weather past 2 weeks in Frankfurt an der Oder, Brandenburg, Germany

Now
35 °F

Passing clouds.


Feels Like: 32 °F
Forecast: 36 / 45 °F
Wind: 3 mph from Northwest

Location: Lindenberg

Current Time: Mar 5, 2015 at 9:56:36 PM

Latest Report: Mar 5, 2015 at 9:00 PM


Visibility: 16 mi

Pressure: 30.53 "Hg

Humidity: 91%

Dew point: 33 °F

Location of Frankfurt an der OderLocation

Historic Weather in Frankfurt an der Oder — Graph

°F

Frankfurt an der Oder temperature yesterday

Maximum temperature yesterday: 42 °F (at 12:00 PM)
Minimum temperature yesterday: 34 °F (at 7:00 AM)
Average temperature yesterday: 39 °F

Past Weeks' High & Low Weather Summary

 TemperatureHumidityPressure
High50 °F (Feb 21, 3:00 PM)98% (Feb 24, 6:00 AM)30.59 "Hg (Feb 24, 6:00 AM)
Low26 °F (Feb 20, 5:00 AM)48% (Feb 21, 12:00 PM)29.38 "Hg (Feb 21, 2:00 PM)
Average37 °F80%29.92 "Hg
* Reported Feb 18 9:00 PM — Mar 5 9:00 PM, Frankfurt an der Oder, Weather by CustomWeather, © 2015

Note: Actual official high and low records may vary slightly from our data, if they occured in-between our weather recording intervals... More about our weather records

Advertising

Frankfurt an der Oder weather history for previous 24 hours

 ConditionsComfort  
Time TempWeatherWind HumidityBarometerVisibility
9:00 PM
Thu, Mar 5
35 °FPassing clouds.3 mph91%30.53 "Hg16 mi
8:00 PM35 °FPassing clouds.3 mph89%30.52 "Hg19 mi
7:00 PM37 °FPassing clouds.2 mph86%30.51 "Hg19 mi
6:00 PM40 °FOvercast.5 mph81%30.49 "Hg25 mi
5:00 PM41 °FPartly sunny.2 mph73%30.48 "Hg25 mi
4:00 PM41 °FPartly sunny.3 mph69%30.48 "Hg25 mi
3:00 PM41 °FOvercast.6 mph70%30.48 "Hg28 mi
2:00 PM41 °FOvercast.6 mph69%30.47 "Hg25 mi
1:00 PM41 °FOvercast.7 mph70%30.47 "Hg25 mi
12:00 PM41 °FScattered clouds.6 mph71%30.46 "Hg22 mi
11:00 AM40 °FScattered clouds.5 mph72%30.45 "Hg22 mi
9:00 AM38 °FPartly sunny.3 mph87%30.43 "Hg19 mi
8:00 AM37 °FOvercast.3 mph92%30.40 "Hg7 mi
7:00 AM37 °FLow clouds.3 mph94%30.36 "Hg6 mi
6:00 AM37 °FLight rain. Overcast.3 mph94%30.35 "Hg7 mi
5:00 AM36 °FLow clouds.3 mph94%30.32 "Hg9 mi
3:00 AM36 °FLight rain. Overcast.3 mph91%30.28 "Hg9 mi
2:00 AM36 °FOvercast.3 mph88%30.26 "Hg9 mi
1:00 AM37 °FOvercast.5 mph82%30.24 "Hg16 mi
12:00 AM37 °FOvercast.5 mph80%30.23 "Hg16 mi
11:00 PM
Wed, Mar 4
38 °FPassing clouds.6 mph77%30.21 "Hg16 mi
10:00 PM37 °FOvercast.2 mph83%30.20 "Hg16 mi
9:00 PM39 °FOvercast.6 mph75%30.19 "Hg16 mi
Weather by CustomWeather, © 2015

See weather overviewHow to use our weather pages